Regional Weather Roundup
Issued by NWS Mt. Holly, NJ

Current Version |  Previous Version |  Text Only |  Print | Product List |  Glossary On
Versions: 1 2 3 4 5 6 7 8 9 10 11 12 13 14 15 16 17 18 19 20 21 22 23 24 25 26 27 28
502
ASUS41 KPHI 280310
RWRPHI

REGIONAL WEATHER ROUNDUP
NATIONAL WEATHER SERVICE MOUNT HOLLY NJ
1100 PM EDT MON MAY 27 2024

NOTE:  "FAIR" INDICATES FEW OR NO CLOUDS BELOW 12,000 FEET WITH NO
SIGNIFICANT WEATHER AND/OR OBSTRUCTIONS TO VISIBILITY.

 * = STATION DOES NOT REPORT PRECIPITATION (E.G. RAIN, SNOW, ETC.)
        OR FOG.

NJZ015>026-280400-
SOUTHERN NEW JERSEY

CITY           SKY/WX    TMP DP  RH WIND       PRES   REMARKS
POMONA         LGT RAIN  70  66  87 S8        29.73S
WILDWOOD*      MOCLDY    70  68  93 NW10G22   29.76R
MILLVILLE      MOCLDY    69  65  86 SW6       29.75R
WRIGHTSTOWN    MOCLDY    70  68  92 S6        29.70F
LAKEHURST      MOCLDY    71  68  90 S6        29.70F
MOUNT HOLLY    MOCLDY    70  68  93 S5        29.71F
TRENTON        CLOUDY    70  68  93 S5        29.71F

$$
NJZ001>014-280400-
NORTHERN NEW JERSEY

CITY           SKY/WX    TMP DP  RH WIND       PRES   REMARKS
SUSSEX         LGT RAIN  67  64  90 CALM      29.70F
ANDOVER*         N/A     64  62  93 CALM      29.72F
MORRISTOWN     CLOUDY    70  68  94 CALM      29.71F
NEWARK         CLOUDY    70  66  87 CALM      29.71F
TETERBORO      MOCLDY    68  65  90 S5        29.72
CALDWELL       CLOUDY    70  66  87 CALM      29.72F FOG
SOMERVILLE     MOCLDY    71  70  96 CALM      29.69F
ALLAIRE*       MOCLDY    69  68  96 S5        29.73F
TOMS RIVER*    MOCLDY    69  68  96 S5        29.73S

$$
PAZ043-044-047-054-055-060>062-066>071-280400-
EASTERN PENNSYLVANIA

CITY           SKY/WX    TMP DP  RH WIND       PRES   REMARKS
PHILADELPHIA   CLOUDY    73  71  93 S7        29.71F
NORTH PHILA    MOCLDY    72  68  87 W3        29.73S
BLUE BELL*     MOCLDY    71  70  99 CALM      29.72F
DOYLESTOWN     LGT RAIN  71  70  96 S3        29.71F
QUAKERTOWN*    PTCLDY    70  70 100 CALM      29.73S
PERKASIE*      FOG       68  68 100 CALM      29.73F VSB 1/4
POTTSTOWN      PTCLDY    71  69  93 CALM      29.73F
LANCASTER      PTCLDY    70  67  90 S7        29.73R
COATESVILLE    MOCLDY    72  72 100 VRB3      29.75S
WEST CHESTER   PTCLDY    72  70  94 SW5       29.73S
READING        PTCLDY    68  66  93 CALM      29.71R
ALLENTOWN      PTCLDY    70  64  81 CALM      29.71F
QN CITY/ALNTWN PTCLDY    70  68  94 S3        29.73F
MOUNT POCONO   PTCLDY    61  58  90 CALM      29.75F
HAZLETON         N/A     61  61 100 CALM      29.78S
LEHIGHTON      PTCLDY    63  61  94 CALM      29.73F
WILKES BARRE   PTCLDY    68  63  84 SW3       29.71R

$$
DEZALL-MDZ008-012-015-019-020-280400-
DELAWARE AND EASTERN MARYLAND

CITY           SKY/WX    TMP DP  RH WIND       PRES   REMARKS
WILMINGTON     PTCLDY    68  65  90 W10       29.74R
DOVER          LGT RAIN  68  63  83 SW9       29.74R
GEORGETOWN     RAIN      67  63  87 NW6G17    29.79R
EASTON         TSTM      66  65  98 CALM      29.78F FOG
STEVENSVILLE   PTCLDY    68 N/A N/A SE8       29.76S
PATUXENT       PTCLDY    77  68  73 SW7       29.74R
OCEAN CITY     MOCLDY    77  71  82 W8        29.76R
WALLOPS ISLAND MOCLDY    74  69  85 SW7       29.78R
CAMBRIDGE      CLOUDY    72  72 100 N12       29.78R
SALISBURY      MOCLDY    74  68  81 N18G26    29.79R

$$
PAZ001-021-NYZ056-072-MDZ011-DCZ001-280400-
OTHER NEARBY LOCATIONS

CITY           SKY/WX    TMP DP  RH WIND       PRES   REMARKS
HARRISBURG     PTCLDY    74  66  76 SW13      29.71R
WILLIAMSPORT   CLOUDY    70  66  87 CALM      29.67R
BINGHAMTON     PTCLDY    66  62  87 S7        29.67S
NEW YORK CITY  MOCLDY    66  64  93 CALM      29.74  FOG
BALTIMORE      PTCLDY    65  64  97 SW3       29.74S
WASHINGTON DC  PTCLDY    70  65  84 CALM      29.75R

$$